| time (UTC) | temp C | wind direction | speed KPH | gust KPH | rain 1hr cm | rain 24hr cm | rain mn cm | humidity % | barometer mb |
| 20260906191509 | 25 | 85 | 0.0 | 0.0 | 0.00 | 0.00 | 0.00 | 75 | 1015.4 |
| 20260906190050 | 25 | 93 | 3.2 | 0.0 | 0.00 | 0.00 | 0.00 | 74 | 1015.1 |
| 20260906184550 | 26 | 113 | 1.6 | 0.0 | 0.00 | 0.00 | 0.00 | 72 | 1015.4 |
| 20260906183034 | 26 | 105 | 1.6 | 0.0 | 0.00 | 0.00 | 0.00 | 75 | 1015.5 |
| 20260906181530 | 25 | 103 | 1.6 | 0.0 | 0.00 | 0.00 | 0.00 | 74 | 1015.4 |
| 20260906180011 | 25 | 76 | 3.2 | 0.0 | 0.00 | 0.00 | 0.00 | 74 | 1015.4 |
| 20260906174511 | 25 | 96 | 4.8 | 0.0 | 0.00 | 0.00 | 0.00 | 76 | 1015.5 |
| 20260906173051 | 25 | 109 | 3.2 | 0.0 | 0.00 | 0.00 | 0.00 | 75 | 1015.6 |
| 20260906171550 | 25 | 103 | 1.6 | 0.0 | 0.00 | 0.00 | 0.00 | 76 | 1015.6 |
| 20260906170030 | 25 | 77 | 3.2 | 0.0 | 0.00 | 0.00 | 0.00 | 77 | 1015.7 |
| 20260906164528 | 24 | 71 | 4.8 | 0.0 | 0.00 | 0.00 | 0.00 | 78 | 1015.8 |
| 20260906163009 | 24 | 123 | 4.8 | 0.0 | 0.00 | 0.00 | 0.00 | 79 | 1015.9 |
| 20260906161508 | 24 | 87 | 0.0 | 0.0 | 0.00 | 0.00 | 0.00 | 80 | 1016.0 |
| 20260906160050 | 24 | 86 | 1.6 | 0.0 | 0.00 | 0.00 | 0.00 | 80 | 1016.3 |
| 20260906154557 | 24 | 108 | 1.6 | 0.0 | 0.00 | 0.00 | 0.00 | 82 | 1016.4 |
| 20260906153026 | 23 | 98 | 3.2 | 0.0 | 0.00 | 0.00 | 0.00 | 85 | 1016.2 |
| 20260906151526 | 22 | 92 | 0.0 | 0.0 | 0.00 | 0.00 | 0.00 | 88 | 1016.4 |
| 20260906150009 | 22 | 82 | 1.6 | 0.0 | 0.00 | 0.00 | 0.00 | 89 | 1016.3 |
| 20260906144514 | 21 | 102 | 1.6 | 0.0 | 0.00 | 0.00 | 0.00 | 92 | 1016.2 |
| 20260906143053 | 21 | 98 | 0.0 | 0.0 | 0.00 | 0.00 | 0.00 | 93 | 1016.0 |
| 20260906141558 | 20 | 95 | 0.0 | 0.0 | 0.00 | 0.00 | 0.00 | 94 | 1016.1 |
| 20260906140036 | 20 | 103 | 0.0 | 0.0 | 0.00 | 0.00 | 0.00 | 96 | 1016.2 |
| 20260906134531 | 20 | 100 | 0.0 | 0.0 | 0.00 | 0.00 | 0.00 | 98 | 1016.2 |
| 20260906133022 | 19 | 101 | 0.0 | 0.0 | 0.00 | 0.00 | 0.00 | 98 | 1016.3 |
| 20260906131512 | 18 | 102 | 0.0 | 0.0 | 0.00 | 0.00 | 0.00 | 98 | 1016.3 |
| 20260906130058 | 18 | 102 | 0.0 | 0.0 | 0.00 | 0.00 | 0.00 | 98 | 1016.4 |
| 20260906124552 | 17 | 102 | 0.0 | 0.0 | 0.00 | 0.00 | 0.00 | 98 | 1016.2 |
| 20260906123041 | 16 | 102 | 0.0 | 0.0 | 0.00 | 0.00 | 0.00 | 98 | 1016.0 |
| 20260906121529 | -17 | 0.0 | 0.0 | 0.00 | 0.00 | 0.00 | 1016.0 | ||
| 20260906120007 | -17 | 0.0 | 0.0 | 0.00 | 0.00 | 0.00 | 1015.9 | ||
| 20260906114507 | -17 | 0.0 | 0.0 | 0.00 | 0.00 | 0.00 | 1016.0 | ||
| 20260906113042 | 16 | 102 | 0.0 | 0.0 | 0.00 | 0.00 | 0.00 | 96 | 1016.0 |
| 20260906111547 | 16 | 102 | 0.0 | 0.0 | 0.00 | 0.00 | 0.00 | 97 | 1015.7 |
| 20260906110021 | 16 | 102 | 0.0 | 0.0 | 0.00 | 0.00 | 0.00 | 97 | 1015.6 |
| 20260906104534 | 17 | 102 | 0.0 | 0.0 | 0.00 | 0.00 | 0.00 | 97 | 1015.5 |
| 20260906103102 | 17 | 102 | 0.0 | 0.0 | 0.00 | 0.00 | 0.00 | 96 | 1015.1 |
| 20260906101559 | 17 | 102 | 0.0 | 0.0 | 0.00 | 0.00 | 0.00 | 97 | 1015.1 |
| 20260906100055 | 17 | 102 | 0.0 | 0.0 | 0.00 | 0.00 | 0.00 | 97 | 1014.9 |
| 20260906094549 | 17 | 102 | 0.0 | 0.0 | 0.00 | 0.00 | 0.00 | 97 | 1014.6 |
| 20260906093032 | 17 | 102 | 0.0 | 0.0 | 0.00 | 0.00 | 0.00 | 96 | 1014.7 |
| 20260906091529 | 17 | 102 | 0.0 | 0.0 | 0.00 | 0.00 | 0.00 | 96 | 1014.7 |
| 20260906090003 | 17 | 102 | 0.0 | 0.0 | 0.00 | 0.00 | 0.00 | 96 | 1014.7 |
| 20260906084503 | 17 | 102 | 0.0 | 0.0 | 0.00 | 0.00 | 0.00 | 96 | 1014.8 |
| 20260906083045 | 17 | 102 | 0.0 | 0.0 | 0.00 | 0.00 | 0.00 | 96 | 1014.8 |
| 20260906081544 | 17 | 102 | 0.0 | 0.0 | 0.00 | 0.00 | 0.00 | 96 | 1014.9 |
| 20260906080027 | 17 | 102 | 0.0 | 0.0 | 0.00 | 0.00 | 0.00 | 95 | 1014.5 |
| 20260906074525 | 17 | 102 | 0.0 | 0.0 | 0.00 | 0.00 | 0.00 | 95 | 1014.6 |
| 20260906073007 | 17 | 102 | 0.0 | 0.0 | 0.00 | 0.00 | 0.00 | 95 | 1014.8 |
| 20260906071506 | 17 | 102 | 0.0 | 0.0 | 0.00 | 0.00 | 0.00 | 95 | 1014.8 |
| 20260906070054 | 18 | 102 | 0.0 | 0.0 | 0.00 | 0.00 | 0.00 | 95 | 1015.0 |
| 20260906064553 | 18 | 102 | 0.0 | 0.0 | 0.00 | 0.00 | 0.00 | 95 | 1015.1 |
| 20260906063051 | 18 | 102 | 0.0 | 0.0 | 0.00 | 0.00 | 0.00 | 95 | 1015.1 |
| 20260906061553 | 18 | 102 | 0.0 | 0.0 | 0.00 | 0.00 | 0.00 | 95 | 1015.0 |
| 20260906060050 | 18 | 102 | 0.0 | 0.0 | 0.00 | 0.00 | 0.00 | 95 | 1015.0 |
| 20260906054603 | 18 | 102 | 0.0 | 0.0 | 0.00 | 0.00 | 0.00 | 94 | 1015.0 |
| 20260906053047 | 18 | 102 | 0.0 | 0.0 | 0.00 | 0.00 | 0.00 | 94 | 1014.9 |
| 20260906051545 | 18 | 102 | 0.0 | 0.0 | 0.00 | 0.00 | 0.00 | 93 | 1015.0 |
| 20260906050031 | 19 | 102 | 0.0 | 0.0 | 0.00 | 0.00 | 0.00 | 93 | 1015.0 |
| 20260906044525 | 19 | 102 | 0.0 | 0.0 | 0.00 | 0.00 | 0.00 | 93 | 1015.1 |
| 20260906043007 | 19 | 102 | 0.0 | 0.0 | 0.00 | 0.00 | 0.00 | 93 | 1015.1 |
| 20260906041506 | 19 | 102 | 0.0 | 0.0 | 0.00 | 0.00 | 0.00 | 92 | 1015.0 |
| 20260906040049 | 20 | 102 | 0.0 | 0.0 | 0.00 | 0.00 | 0.00 | 92 | 1015.0 |
| 20260906034550 | 20 | 102 | 0.0 | 0.0 | 0.00 | 0.00 | 0.00 | 92 | 1015.0 |
| 20260906033027 | 20 | 102 | 0.0 | 0.0 | 0.00 | 0.00 | 0.00 | 92 | 1015.1 |
| 20260906031557 | 20 | 102 | 0.0 | 0.0 | 0.00 | 0.00 | 0.00 | 92 | 1015.1 |
| 20260906030011 | 20 | 102 | 0.0 | 0.0 | 0.00 | 0.00 | 0.00 | 92 | 1015.1 |
| 20260906024532 | 20 | 102 | 0.0 | 0.0 | 0.00 | 0.00 | 0.00 | 92 | 1015.2 |
| 20260906023107 | 20 | 102 | 0.0 | 0.0 | 0.00 | 0.00 | 0.00 | 91 | 1015.2 |
| 20260906021548 | 20 | 102 | 0.0 | 0.0 | 0.00 | 0.00 | 0.00 | 91 | 1015.1 |
| 20260906020046 | 20 | 102 | 0.0 | 0.0 | 0.00 | 0.00 | 0.00 | 89 | 1014.9 |
| 20260906014525 | 20 | 102 | 0.0 | 0.0 | 0.00 | 0.00 | 0.00 | 88 | 1014.4 |
| 20260906013022 | 21 | 102 | 0.0 | 0.0 | 0.00 | 0.00 | 0.00 | 87 | 1013.9 |
| 20260906011502 | 21 | 102 | 0.0 | 0.0 | 0.00 | 0.00 | 0.00 | 85 | 1013.5 |
| 20260906010058 | 22 | 102 | 0.0 | 0.0 | 0.00 | 0.00 | 0.00 | 84 | 1013.1 |
| 20260906004535 | 23 | 102 | 0.0 | 0.0 | 0.00 | 0.00 | 0.00 | 82 | 1012.7 |
| 20260906003035 | 23 | 102 | 0.0 | 0.0 | 0.00 | 0.00 | 0.00 | 79 | 1012.3 |
| 20260906001516 | 24 | 102 | 0.0 | 0.0 | 0.00 | 0.00 | 0.00 | 77 | 1012.1 |
| 20260906000019 | 25 | 102 | 0.0 | 0.0 | 0.00 | 0.00 | 0.00 | 75 | 1012.3 |
| 20260905234605 | 25 | 102 | 0.0 | 0.0 | 0.00 | 0.00 | 0.00 | 74 | 1012.3 |
| 20260905233059 | 25 | 99 | 0.0 | 0.0 | 0.00 | 0.00 | 0.00 | 74 | 1012.3 |
| 20260905231541 | 25 | 103 | 1.6 | 0.0 | 0.00 | 0.00 | 0.00 | 74 | 1012.4 |
| 20260905230040 | 25 | 77 | 0.0 | 0.0 | 0.00 | 0.00 | 0.00 | 75 | 1012.6 |
| 20260905224523 | 26 | 106 | 0.0 | 0.0 | 0.00 | 0.00 | 0.00 | 74 | 1012.6 |
| 20260905223022 | 25 | 83 | 1.6 | 0.0 | 0.00 | 0.00 | 0.00 | 74 | 1012.7 |
| 20260905221506 | 25 | 89 | 1.6 | 0.0 | 0.00 | 0.00 | 0.00 | 75 | 1012.7 |
| 20260905220004 | 26 | 93 | 0.0 | 0.0 | 0.00 | 0.00 | 0.00 | 73 | 1012.9 |
| 20260905214551 | 26 | 97 | 1.6 | 0.0 | 0.00 | 0.00 | 0.00 | 73 | 1013.2 |
| 20260905213049 | 26 | 92 | 1.6 | 0.0 | 0.00 | 0.00 | 0.00 | 73 | 1013.3 |
| 20260905211552 | 26 | 80 | 0.0 | 0.0 | 0.00 | 0.00 | 0.00 | 73 | 1013.3 |
| 20260905210025 | 26 | 82 | 1.6 | 0.0 | 0.00 | 0.00 | 0.00 | 73 | 1013.4 |
| 20260905204507 | 25 | 94 | 3.2 | 0.0 | 0.00 | 0.00 | 0.00 | 75 | 1013.9 |
| 20260905203005 | 25 | 86 | 0.0 | 0.0 | 0.00 | 0.00 | 0.00 | 76 | 1014.2 |
| 20260905201552 | 25 | 86 | 0.0 | 0.0 | 0.00 | 0.00 | 0.00 | 75 | 1014.3 |
| 20260905200052 | 25 | 87 | 0.0 | 0.0 | 0.00 | 0.00 | 0.00 | 77 | 1014.5 |
| 20260905194526 | 25 | 92 | 1.6 | 0.0 | 0.00 | 0.00 | 0.00 | 79 | 1014.7 |
| 20260905193022 | 24 | 90 | 1.6 | 0.0 | 0.00 | 0.00 | 0.00 | 80 | 1014.7 |